Location: Altmatt
(47.1333°N, 8.7000°E)
Time: 08:22:56
(UTC+00:00)

IRIDIUM 104 - Pass Details

Date: 13 July 2020
Orbit: 776 x 779 km, 86.4° (Epoch: 04 August)

Event Time Altitude Azimuth Distance (km) Brightness Sun altitude
Exits shadow 22:16:18 36° 176° (S) 1,212 4.8 -19.2°
Maximum altitude 22:18:29 83° 92° (E) 791 4.3 -19.3°
Drops below altitude 10° 22:23:44 10° 5° (N) 2,341 7.8 -19.6°
Sets 22:26:06 0° 5° (N) 3,273 8.8 -19.7°
